Time,TemperatureF,DewpointF,PressureIn,WindDirection,WindDirectionDegrees,WindSpeedMPH,WindSpeedGustMPH,Humidity,HourlyPrecipIn,Conditions,Clouds,dailyrainin,SoftwareType,DateUTC
2015-06-30 00:04:00,64.0,45.5,29.92,SSW,202,0.0,0.0,51,0.00,,,0.00,LWC V2.10 B1500,2015-06-30 07:04:00,
2015-06-30 00:09:00,63.9,45.3,29.91,SSW,202,0.0,0.0,51,0.00,,,0.00,LWC V2.10 B1500,2015-06-30 07:09:00,
2015-06-30 00:14:00,63.7,45.2,29.91,SSW,202,0.0,0.0,51,0.00,,,0.00,LWC V2.10 B1500,2015-06-30 07:14:00,
2015-06-30 00:19:00,63.3,44.8,29.92,SSW,202,0.0,0.0,51,0.00,,,0.00,LWC V2.10 B1500,2015-06-30 07:19:00,
2015-06-30 00:24:00,63.1,45.2,29.92,SSW,202,0.0,0.0,52,0.00,,,0.00,LWC V2.10 B1500,2015-06-30 07:24:00,
2015-06-30 00:29:00,63.1,45.2,29.91,SSW,202,0.0,0.0,52,0.00,,,0.00,LWC V2.10 B1500,2015-06-30 07:29:00,
2015-06-30 00:34:00,63.1,45.0,29.91,SSW,202,0.0,0.0,52,0.00,,,0.00,LWC V2.10 B1500,2015-06-30 07:34:00,
2015-06-30 00:39:00,62.8,45.3,29.92,SSW,202,0.0,0.0,53,0.00,,,0.00,LWC V2.10 B1500,2015-06-30 07:39:00,
2015-06-30 00:44:00,62.4,45.2,29.92,SSW,202,0.0,0.0,53,0.00,,,0.00,LWC V2.10 B1500,2015-06-30 07:44:00,
2015-06-30 00:49:00,62.4,45.0,29.92,SSW,202,0.0,0.0,53,0.00,,,0.00,LWC V2.10 B1500,2015-06-30 07:49:00,
2015-06-30 00:54:00,62.2,44.8,29.92,SSW,202,0.0,0.0,53,0.00,,,0.00,LWC V2.10 B1500,2015-06-30 07:54:00,
2015-06-30 00:59:00,62.1,44.7,29.92,SSW,202,0.0,0.0,53,0.00,,,0.00,LWC V2.10 B1500,2015-06-30 07:59:00,
2015-06-30 01:04:00,61.9,44.5,29.92,SSW,202,0.0,0.0,53,0.00,,,0.00,LWC V2.10 B1500,2015-06-30 08:04:00,
2015-06-30 01:09:00,61.7,44.3,29.92,SSW,202,0.0,0.0,53,0.00,,,0.00,LWC V2.10 B1500,2015-06-30 08:09:00,
2015-06-30 01:14:00,61.5,44.7,29.92,SSW,202,0.0,0.0,54,0.00,,,0.00,LWC V2.10 B1500,2015-06-30 08:14:00,
2015-06-30 01:19:00,61.3,44.5,29.92,SSW,202,0.0,0.0,54,0.00,,,0.00,LWC V2.10 B1500,2015-06-30 08:19:00,
2015-06-30 01:24:00,61.0,44.7,29.92,SSW,202,0.0,0.0,55,0.00,,,0.00,LWC V2.10 B1500,2015-06-30 08:24:00,
2015-06-30 01:29:00,60.6,44.3,29.92,SSW,202,0.0,0.0,55,0.00,,,0.00,LWC V2.10 B1500,2015-06-30 08:29:00,
2015-06-30 01:34:00,60.6,44.3,29.92,SSW,202,0.0,0.0,55,0.00,,,0.00,LWC V2.10 B1500,2015-06-30 08:34:00,
2015-06-30 01:39:00,60.6,44.3,29.92,SSW,202,0.0,0.0,55,0.00,,,0.00,LWC V2.10 B1500,2015-06-30 08:39:00,
2015-06-30 01:44:00,60.4,44.2,29.92,SSW,202,0.0,0.0,55,0.00,,,0.00,LWC V2.10 B1500,2015-06-30 08:44:00,
2015-06-30 01:49:00,60.4,44.6,29.92,SSW,202,0.0,0.0,56,0.00,,,0.00,LWC V2.10 B1500,2015-06-30 08:49:00,
2015-06-30 01:54:00,60.1,44.3,29.92,SSW,202,0.0,0.0,56,0.00,,,0.00,LWC V2.10 B1500,2015-06-30 08:54:00,
2015-06-30 01:59:00,59.9,44.1,29.92,SSW,202,0.0,0.0,56,0.00,,,0.00,LWC V2.10 B1500,2015-06-30 08:59:00,
2015-06-30 02:04:00,59.7,44.0,29.92,SSW,202,0.0,0.0,56,0.00,,,0.00,LWC V2.10 B1500,2015-06-30 09:04:00,
2015-06-30 02:09:00,59.5,44.3,29.92,SSW,202,0.0,0.0,57,0.00,,,0.00,LWC V2.10 B1500,2015-06-30 09:09:00,
2015-06-30 02:14:00,59.5,44.3,29.92,SSW,202,0.0,0.0,57,0.00,,,0.00,LWC V2.10 B1500,2015-06-30 09:14:00,
2015-06-30 02:19:00,59.2,43.9,29.92,SSW,202,0.0,0.0,57,0.00,,,0.00,LWC V2.10 B1500,2015-06-30 09:19:00,
2015-06-30 02:24:00,59.2,44.4,29.92,SSW,202,0.0,0.0,58,0.00,,,0.00,LWC V2.10 B1500,2015-06-30 09:24:00,
2015-06-30 02:29:00,59.0,44.2,29.92,SSW,202,0.0,0.0,58,0.00,,,0.00,LWC V2.10 B1500,2015-06-30 09:29:00,
2015-06-30 02:34:00,58.8,44.0,29.92,SSW,202,0.0,0.0,58,0.00,,,0.00,LWC V2.10 B1500,2015-06-30 09:34:00,
2015-06-30 02:39:00,58.8,44.0,29.92,SSW,202,0.0,0.0,58,0.00,,,0.00,LWC V2.10 B1500,2015-06-30 09:39:00,
2015-06-30 02:44:00,58.8,44.0,29.92,SSW,202,0.0,0.0,58,0.00,,,0.00,LWC V2.10 B1500,2015-06-30 09:44:00,
2015-06-30 02:49:00,58.8,44.0,29.92,SSW,202,0.0,0.0,58,0.00,,,0.00,LWC V2.10 B1500,2015-06-30 09:49:00,
2015-06-30 02:54:00,58.8,44.0,29.91,SSW,202,0.0,0.0,58,0.00,,,0.00,LWC V2.10 B1500,2015-06-30 09:54:00,
2015-06-30 02:59:00,58.6,43.9,29.91,SSW,202,0.0,0.0,58,0.00,,,0.00,LWC V2.10 B1500,2015-06-30 09:59:00,
2015-06-30 03:04:00,58.5,43.7,29.91,SSW,202,0.0,0.0,58,0.00,,,0.00,LWC V2.10 B1500,2015-06-30 10:04:00,
2015-06-30 03:09:00,58.3,44.0,29.92,SSW,202,0.0,0.0,59,0.00,,,0.00,LWC V2.10 B1500,2015-06-30 10:09:00,
2015-06-30 03:14:00,58.1,43.9,29.92,SSW,202,0.0,0.0,59,0.00,,,0.00,LWC V2.10 B1500,2015-06-30 10:14:00,
2015-06-30 03:19:00,57.9,43.7,29.92,SSW,202,0.0,0.0,59,0.00,,,0.00,LWC V2.10 B1500,2015-06-30 10:19:00,
2015-06-30 03:24:00,57.9,44.2,29.92,SSW,202,0.0,0.0,60,0.00,,,0.00,LWC V2.10 B1500,2015-06-30 10:24:00,
2015-06-30 03:29:00,57.7,44.0,29.92,SSW,202,0.0,0.0,60,0.00,,,0.00,LWC V2.10 B1500,2015-06-30 10:29:00,
2015-06-30 03:34:00,57.6,43.8,29.92,SSW,202,0.0,0.0,60,0.00,,,0.00,LWC V2.10 B1500,2015-06-30 10:34:00,
2015-06-30 03:39:00,57.4,44.1,29.92,SSW,202,0.0,0.0,61,0.00,,,0.00,LWC V2.10 B1500,2015-06-30 10:39:00,
2015-06-30 03:44:00,57.4,44.1,29.92,SSW,202,0.0,0.0,61,0.00,,,0.00,LWC V2.10 B1500,2015-06-30 10:44:00,
2015-06-30 03:49:00,57.4,43.9,29.92,SSW,202,0.0,0.0,61,0.00,,,0.00,LWC V2.10 B1500,2015-06-30 10:49:00,
2015-06-30 03:54:00,57.0,43.7,29.92,SSW,202,0.0,0.0,61,0.00,,,0.00,LWC V2.10 B1500,2015-06-30 10:54:00,
2015-06-30 03:59:00,56.8,44.0,29.92,SSW,202,0.0,0.0,62,0.00,,,0.00,LWC V2.10 B1500,2015-06-30 10:59:00,
2015-06-30 04:04:00,56.8,44.0,29.92,SSW,202,0.0,0.0,62,0.00,,,0.00,LWC V2.10 B1500,2015-06-30 11:04:00,
2015-06-30 04:09:00,56.8,44.0,29.92,SSW,202,0.0,0.0,62,0.00,,,0.00,LWC V2.10 B1500,2015-06-30 11:09:00,
2015-06-30 04:14:00,56.5,43.6,29.92,SSW,202,0.0,0.0,62,0.00,,,0.00,LWC V2.10 B1500,2015-06-30 11:14:00,
2015-06-30 04:19:00,56.5,43.6,29.92,SSW,202,0.0,0.0,62,0.00,,,0.00,LWC V2.10 B1500,2015-06-30 11:19:00,
2015-06-30 04:24:00,56.5,43.6,29.92,SSW,202,0.0,0.0,62,0.00,,,0.00,LWC V2.10 B1500,2015-06-30 11:24:00,
2015-06-30 04:29:00,56.3,43.4,29.92,SSW,202,0.0,0.0,62,0.00,,,0.00,LWC V2.10 B1500,2015-06-30 11:29:00,
2015-06-30 04:34:00,56.3,43.6,29.92,SSW,202,0.0,0.0,63,0.00,,,0.00,LWC V2.10 B1500,2015-06-30 11:34:00,
2015-06-30 04:39:00,56.1,43.6,29.93,SSW,202,0.0,0.0,63,0.00,,,0.00,LWC V2.10 B1500,2015-06-30 11:39:00,
2015-06-30 04:44:00,56.1,43.6,29.92,SSW,202,0.0,0.0,63,0.00,,,0.00,LWC V2.10 B1500,2015-06-30 11:44:00,
2015-06-30 04:49:00,55.9,43.5,29.92,SSW,202,0.0,0.0,63,0.00,,,0.00,LWC V2.10 B1500,2015-06-30 11:49:00,
2015-06-30 04:54:00,55.9,43.5,29.92,SSW,202,0.0,0.0,63,0.00,,,0.00,LWC V2.10 B1500,2015-06-30 11:54:00,
2015-06-30 04:59:00,55.8,43.3,29.92,SSW,202,0.0,0.0,63,0.00,,,0.00,LWC V2.10 B1500,2015-06-30 11:59:00,
2015-06-30 05:04:00,55.4,43.4,29.93,SSW,202,0.0,0.0,64,0.00,,,0.00,LWC V2.10 B1500,2015-06-30 12:04:00,
2015-06-30 05:09:00,55.2,43.2,29.93,SSW,202,0.0,0.0,64,0.00,,,0.00,LWC V2.10 B1500,2015-06-30 12:09:00,
2015-06-30 05:14:00,55.2,43.2,29.93,SSW,202,0.0,0.0,64,0.00,,,0.00,LWC V2.10 B1500,2015-06-30 12:14:00,
2015-06-30 05:19:00,55.2,43.6,29.93,SSW,202,0.0,0.0,65,0.00,,,0.00,LWC V2.10 B1500,2015-06-30 12:19:00,
2015-06-30 05:24:00,55.0,43.4,29.93,SSW,202,0.0,0.0,65,0.00,,,0.00,LWC V2.10 B1500,2015-06-30 12:24:00,
2015-06-30 05:29:00,55.0,43.4,29.93,SSW,202,0.0,0.0,65,0.00,,,0.00,LWC V2.10 B1500,2015-06-30 12:29:00,
2015-06-30 05:34:00,55.0,43.4,29.93,SSW,202,0.0,0.0,65,0.00,,,0.00,LWC V2.10 B1500,2015-06-30 12:34:00,
2015-06-30 05:39:00,55.0,43.4,29.93,SSW,202,0.0,0.0,65,0.00,,,0.00,LWC V2.10 B1500,2015-06-30 12:39:00,
2015-06-30 05:44:00,54.9,43.3,29.93,SSW,202,0.0,0.0,65,0.00,,,0.00,LWC V2.10 B1500,2015-06-30 12:44:00,
2015-06-30 05:49:00,54.7,43.1,29.93,SSW,202,0.0,0.0,65,0.00,,,0.00,LWC V2.10 B1500,2015-06-30 12:49:00,
2015-06-30 05:54:00,54.7,43.1,29.93,SSW,202,0.0,0.0,65,0.00,,,0.00,LWC V2.10 B1500,2015-06-30 12:54:00,
2015-06-30 05:59:00,54.5,43.3,29.93,SSW,202,0.0,0.0,66,0.00,,,0.00,LWC V2.10 B1500,2015-06-30 12:59:00,
2015-06-30 06:04:00,54.5,43.3,29.93,SSW,202,0.0,0.0,66,0.00,,,0.00,LWC V2.10 B1500,2015-06-30 13:04:00,
2015-06-30 06:09:00,54.5,43.3,29.94,SSW,202,0.0,0.0,66,0.00,,,0.00,LWC V2.10 B1500,2015-06-30 13:09:00,
2015-06-30 06:14:00,54.5,43.2,29.93,SSW,202,0.0,0.0,66,0.00,,,0.00,LWC V2.10 B1500,2015-06-30 13:14:00,
2015-06-30 06:19:00,54.3,43.6,29.94,SSW,202,0.0,0.0,67,0.00,,,0.00,LWC V2.10 B1500,2015-06-30 13:19:00,
2015-06-30 06:24:00,54.3,43.6,29.94,SSW,202,0.0,0.0,67,0.00,,,0.00,LWC V2.10 B1500,2015-06-30 13:24:00,
2015-06-30 06:29:00,54.3,43.6,29.94,SSW,202,0.0,0.0,67,0.00,,,0.00,LWC V2.10 B1500,2015-06-30 13:29:00,
2015-06-30 06:34:00,54.3,43.6,29.94,SSW,202,0.0,0.0,67,0.00,,,0.00,LWC V2.10 B1500,2015-06-30 13:34:00,
2015-06-30 06:39:00,54.3,43.6,29.94,SSW,202,0.0,0.0,67,0.00,,,0.00,LWC V2.10 B1500,2015-06-30 13:39:00,
2015-06-30 06:44:00,54.3,43.6,29.93,SSW,202,0.0,0.0,67,0.00,,,0.00,LWC V2.10 B1500,2015-06-30 13:44:00,
2015-06-30 06:49:00,54.5,44.2,29.93,SSW,202,0.0,0.0,68,0.00,,,0.00,LWC V2.10 B1500,2015-06-30 13:49:00,
2015-06-30 06:54:00,54.7,44.3,29.94,SSW,202,0.0,0.0,68,0.00,,,0.00,LWC V2.10 B1500,2015-06-30 13:54:00,
2015-06-30 06:59:00,54.9,44.5,29.94,SSW,202,0.0,0.0,68,0.00,,,0.00,LWC V2.10 B1500,2015-06-30 13:59:00,
2015-06-30 07:04:00,55.0,44.7,29.94,SSW,202,0.0,0.0,68,0.00,,,0.00,LWC V2.10 B1500,2015-06-30 14:04:00,
2015-06-30 07:09:00,55.2,44.9,29.94,SSW,202,0.0,0.0,68,0.00,,,0.00,LWC V2.10 B1500,2015-06-30 14:09:00,
2015-06-30 07:14:00,55.6,45.2,29.94,SSW,202,0.0,0.0,68,0.00,,,0.00,LWC V2.10 B1500,2015-06-30 14:14:00,
2015-06-30 07:19:00,55.9,45.5,29.94,SSW,202,0.0,0.0,68,0.00,,,0.00,LWC V2.10 B1500,2015-06-30 14:19:00,
2015-06-30 07:24:00,56.1,45.7,29.94,SSW,202,0.0,0.0,68,0.00,,,0.00,LWC V2.10 B1500,2015-06-30 14:24:00,
2015-06-30 07:29:00,56.5,46.0,29.94,SSW,202,0.0,0.0,68,0.00,,,0.00,LWC V2.10 B1500,2015-06-30 14:29:00,
2015-06-30 07:34:00,56.8,46.3,29.93,SSW,202,0.0,0.0,68,0.00,,,0.00,LWC V2.10 B1500,2015-06-30 14:34:00,
2015-06-30 07:39:00,57.0,46.7,29.93,SSW,202,0.0,0.0,68,0.00,,,0.00,LWC V2.10 B1500,2015-06-30 14:39:00,
2015-06-30 07:44:00,57.6,47.0,29.93,SSW,202,0.0,0.0,68,0.00,,,0.00,LWC V2.10 B1500,2015-06-30 14:44:00,
2015-06-30 07:49:00,57.9,47.4,29.93,SSW,202,0.0,0.0,68,0.00,,,0.00,LWC V2.10 B1500,2015-06-30 14:49:00,
2015-06-30 07:54:00,58.5,47.9,29.93,SSW,202,0.0,0.0,68,0.00,,,0.00,LWC V2.10 B1500,2015-06-30 14:54:00,
2015-06-30 07:59:00,58.8,48.7,29.93,SSW,202,0.0,0.0,69,0.00,,,0.00,LWC V2.10 B1500,2015-06-30 14:59:00,
2015-06-30 08:04:00,59.5,49.4,29.93,SSW,202,0.0,0.0,69,0.00,,,0.00,LWC V2.10 B1500,2015-06-30 15:04:00,
2015-06-30 08:09:00,60.4,50.1,29.92,SSW,202,0.0,0.0,69,0.00,,,0.00,LWC V2.10 B1500,2015-06-30 15:09:00,
2015-06-30 08:14:00,61.2,51.0,29.92,SSW,202,0.0,0.0,69,0.00,,,0.00,LWC V2.10 B1500,2015-06-30 15:14:00,
2015-06-30 08:19:00,62.1,51.4,29.92,SSW,202,0.0,0.0,68,0.00,,,0.00,LWC V2.10 B1500,2015-06-30 15:19:00,
2015-06-30 08:24:00,63.1,52.4,29.92,SSW,202,0.0,0.0,68,0.00,,,0.00,LWC V2.10 B1500,2015-06-30 15:24:00,
2015-06-30 08:29:00,64.2,52.6,29.92,SSW,202,0.0,0.0,66,0.00,,,0.00,LWC V2.10 B1500,2015-06-30 15:29:00,
2015-06-30 08:34:00,65.1,52.6,29.92,South,180,0.0,2.7,64,0.00,,,0.00,LWC V2.10 B1500,2015-06-30 15:34:00,
2015-06-30 08:39:00,66.0,52.6,29.91,SSW,202,0.0,0.0,62,0.00,,,0.00,LWC V2.10 B1500,2015-06-30 15:39:00,
2015-06-30 08:44:00,66.9,53.5,29.92,NW,315,0.0,0.0,62,0.00,,,0.00,LWC V2.10 B1500,2015-06-30 15:44:00,
2015-06-30 08:49:00,67.8,53.9,29.91,NW,315,0.0,0.0,61,0.00,,,0.00,LWC V2.10 B1500,2015-06-30 15:49:00,